Weather History for Dubois Muni, Dubois, WY, WY

Change the Weather History Date:

Sunday, December 29, 2013

  Actual Average (KJAC) Record (KJAC)
Temperature  
Mean Temperature 20 °F -  
Max Temperature 32 °F 19 °F 47 °F (1980)
Min Temperature 8 °F -5 °F -26 °F (1978)
Degree Days  
Heating Degree Days 45    
Moisture  
Dew Point 7 °F    
Average Humidity 56    
Maximum Humidity 85    
Minimum Humidity 27    
Precipitation  
Precipitation 0.00 in - - ()
Sea Level Pressure  
Sea Level Pressure 30.05 in    
Wind  
Wind Speed 18 mph (NW)    
Max Wind Speed 34 mph    
Max Gust Speed 46 mph    
Visibility 10 miles    
Events      
Averages and records for this station are not official NWS values.
T = Trace of Precipitation, MM = Missing Value Source: NWS Daily Summary

Daily Weather History Graph

Daily Weather History Graph

Search for Another Location

Airport:

Trip Planner

Search our weather history database for the weather conditions in past years. The results will help you decide how hot, cold, wet, or windy it might be!

Date:

Astronomy

Dec. 29, 2013 Rise Set
Actual Time 7:51 AM MST 4:50 PM MST
Civil Twilight 7:18 AM MST 5:23 PM MST
Nautical Twilight 6:42 AM MST 5:59 PM MST
Astronomical Twilight 6:07 AM MST 6:34 PM MST
Moon 4:36 AM MST (12/29) 2:33 PM MST (12/29)
Length of Visible Light 10h 04m
Length of Day
8h 58m
Waning Crescent, 10% of the Moon is Illuminated
Dec 29
Waning Crescent
Jan 1
New
Jan 7
First Quarter
Jan 15
Full
Jan 23
Last Quarter

Hourly Weather History & Observations

Time (MST) Temp. Windchill Dew Point Humidity Pressure Visibility Wind Dir Wind Speed Gust Speed Precip Events Conditions
12:15 AM 10.4 °F -4.8 °F 6.8 °F 85% 30.15 in 10.0 mi NW 12.7 mph - N/A   Clear
12:35 AM 10.4 °F -4.1 °F 5.0 °F 79% 30.15 in 10.0 mi WNW 11.5 mph - N/A   Clear
12:55 AM 8.6 °F -2.6 °F 5.0 °F 85% 30.15 in 10.0 mi NW 6.9 mph - N/A   Clear
1:10 AM 10.4 °F -6.0 °F 5.0 °F 79% 30.15 in 10.0 mi NW 15.0 mph - N/A   Clear
1:35 AM 10.4 °F -5.4 °F 5.0 °F 79% 30.16 in 10.0 mi WNW 13.8 mph - N/A   Clear
1:55 AM 10.4 °F -4.1 °F 3.2 °F 73% 30.16 in 10.0 mi NW 11.5 mph - N/A   Clear
2:15 AM 12.2 °F -2.5 °F 3.2 °F 67% 30.16 in 10.0 mi NW 12.7 mph - N/A   Clear
2:35 AM 10.4 °F -4.8 °F 3.2 °F 73% 30.16 in 10.0 mi NW 12.7 mph - N/A   Clear
2:55 AM 10.4 °F -3.3 °F 3.2 °F 73% 30.16 in 10.0 mi NNW 10.4 mph - N/A   Clear
3:15 AM 10.4 °F -0.4 °F 3.2 °F 73% 30.15 in 10.0 mi North 6.9 mph - N/A   Clear
3:35 AM 17.6 °F 1.7 °F 5.0 °F 58% 30.15 in 10.0 mi West 18.4 mph 23.0 mph N/A   Clear
3:55 AM 12.2 °F -1.0 °F 5.0 °F 73% 30.15 in 10.0 mi WNW 10.4 mph - N/A   Clear
4:15 AM 17.6 °F 2.7 °F 5.0 °F 58% 30.15 in 10.0 mi West 16.1 mph - N/A   Clear
4:35 AM 19.4 °F 3.2 °F 5.0 °F 54% 30.15 in 10.0 mi WNW 20.7 mph 24.2 mph N/A   Clear
4:55 AM 17.6 °F 0.9 °F 5.0 °F 58% 30.14 in 10.0 mi WNW 20.7 mph - N/A   Clear
5:15 AM 17.6 °F 3.2 °F 5.0 °F 58% 30.14 in 10.0 mi WNW 15.0 mph - N/A   Clear
5:35 AM 17.6 °F 1.7 °F 6.8 °F 63% 30.13 in 10.0 mi West 18.4 mph 23.0 mph N/A   Clear
5:55 AM 17.6 °F 4.3 °F 6.8 °F 63% 30.12 in 10.0 mi WNW 12.7 mph - N/A   Clear
6:15 AM 17.6 °F 1.3 °F 6.8 °F 63% 30.11 in 10.0 mi WNW 19.6 mph 23.0 mph N/A   Clear
6:40 AM 19.4 °F 1.8 °F 6.8 °F 58% 30.12 in 10.0 mi WNW 25.3 mph 28.8 mph N/A   Clear
6:55 AM 19.4 °F 3.6 °F 6.8 °F 58% 30.13 in 10.0 mi WNW 19.6 mph 27.6 mph N/A   Clear
7:15 AM 19.4 °F 0.5 °F 8.6 °F 63% 30.12 in 10.0 mi WNW 29.9 mph 36.8 mph N/A   Clear
7:30 AM 19.4 °F 1.1 °F 6.8 °F 58% 30.13 in 10.0 mi WNW 27.6 mph - N/A   Clear
7:55 AM 19.4 °F 1.4 °F 6.8 °F 58% 30.12 in 10.0 mi NW 26.5 mph 31.1 mph N/A   Clear
8:15 AM 19.4 °F 2.1 °F 5.0 °F 54% 30.12 in 10.0 mi WNW 24.2 mph 31.1 mph N/A   Clear
8:35 AM 19.4 °F 1.1 °F 5.0 °F 54% 30.11 in 10.0 mi WNW 27.6 mph - N/A   Clear
8:55 AM 21.2 °F 6.8 °F 5.0 °F 50% 30.11 in 10.0 mi NW 17.3 mph 29.9 mph N/A   Clear
9:15 AM 19.4 °F 5.0 °F 6.8 °F 58% 30.11 in 10.0 mi NNW 16.1 mph - N/A   Clear
9:35 AM 21.2 °F 8.3 °F 6.8 °F 54% 30.11 in 10.0 mi North 13.8 mph 20.7 mph N/A   Clear
9:55 AM 23.0 °F 12.4 °F 6.8 °F 50% 30.11 in 10.0 mi NNW 10.4 mph 21.9 mph N/A   Clear
10:15 AM 24.8 °F 13.4 °F 5.0 °F 43% 30.11 in 10.0 mi NW 12.7 mph 24.2 mph N/A   Clear
10:35 AM 24.8 °F 11.9 °F 6.8 °F 46% 30.10 in 10.0 mi NNW 16.1 mph 24.2 mph N/A   Clear
10:55 AM 26.6 °F 14.3 °F 6.8 °F 43% 30.08 in 10.0 mi North 16.1 mph 20.7 mph N/A   Clear
11:15 AM 28.4 °F 15.8 °F 3.2 °F 34% 30.07 in 10.0 mi WNW 18.4 mph 24.2 mph N/A   Clear
11:35 AM 28.4 °F 13.3 °F 1.4 °F 31% 30.04 in 10.0 mi West 27.6 mph 40.3 mph N/A   Clear
11:55 AM 28.4 °F 14.1 °F 3.2 °F 34% 30.04 in 10.0 mi WNW 24.2 mph 36.8 mph N/A   Clear
12:15 PM 30.2 °F 15.9 °F 3.2 °F 32% 30.04 in 10.0 mi WNW 26.5 mph 34.5 mph N/A   Clear
12:35 PM 30.2 °F 17.1 °F 3.2 °F 32% 30.03 in 10.0 mi NW 21.9 mph 32.2 mph N/A   Clear
12:55 PM 30.2 °F 18.1 °F 3.2 °F 32% 30.01 in 10.0 mi NW 18.4 mph 34.5 mph N/A   Clear
1:20 PM 32.0 °F 18.1 °F 1.4 °F 27% 30.00 in 10.0 mi WNW 27.6 mph 36.8 mph N/A   Clear
1:35 PM 32.0 °F 18.1 °F 3.2 °F 30% 30.00 in 10.0 mi WNW 27.6 mph 38.0 mph N/A   Clear
1:55 PM 32.0 °F 18.4 °F 3.2 °F 30% 30.00 in 10.0 mi WNW 26.5 mph 32.2 mph N/A   Clear
2:15 PM 32.0 °F 18.4 °F 3.2 °F 30% 29.98 in 10.0 mi WNW 26.5 mph 36.8 mph N/A   Clear
2:35 PM 32.0 °F 18.9 °F 3.2 °F 30% 29.97 in 10.0 mi WNW 24.2 mph 38.0 mph N/A   Clear
2:55 PM 32.0 °F 19.5 °F 5.0 °F 32% 29.98 in 10.0 mi NW 21.9 mph 28.8 mph N/A   Clear
3:15 PM 30.2 °F 18.1 °F 5.0 °F 34% 29.99 in 10.0 mi NW 18.4 mph 28.8 mph N/A   Clear
3:35 PM 28.4 °F 13.3 °F 5.0 °F 37% 29.98 in 10.0 mi WNW 27.6 mph 38.0 mph N/A   Mostly Cloudy
3:55 PM 28.4 °F 15.8 °F 8.6 °F 43% 29.97 in 10.0 mi NW 18.4 mph 38.0 mph N/A   Mostly Cloudy
4:15 PM 26.6 °F 12.4 °F 8.6 °F 47% 29.94 in 10.0 mi NW 21.9 mph 29.9 mph N/A   Scattered Clouds
4:35 PM 26.6 °F 10.8 °F 6.8 °F 43% 29.93 in 10.0 mi NW 27.6 mph 34.5 mph N/A   Scattered Clouds
4:55 PM 26.6 °F 10.3 °F 8.6 °F 47% 29.91 in 10.0 mi NW 29.9 mph 39.1 mph N/A   Clear
5:15 PM 24.8 °F 6.8 °F 8.6 °F 50% 29.92 in 10.0 mi NW 34.5 mph 43.7 mph N/A   Clear
5:35 PM 24.8 °F 6.8 °F 8.6 °F 50% 29.92 in 10.0 mi NW 34.5 mph 46.0 mph N/A   Scattered Clouds
5:55 PM 23.0 °F 4.6 °F 8.6 °F 54% 29.92 in 10.0 mi NW 33.4 mph 41.4 mph N/A   Scattered Clouds
6:15 PM 23.0 °F 6.0 °F 10.4 °F 59% 29.93 in 10.0 mi NW 27.6 mph 38.0 mph N/A   Overcast
6:35 PM 23.0 °F 5.7 °F 10.4 °F 59% 29.93 in 10.0 mi NW 28.8 mph 39.1 mph N/A   Overcast
6:55 PM 23.0 °F 4.6 °F 12.2 °F 63% 29.95 in 10.0 mi NW 33.4 mph 41.4 mph N/A   Overcast
7:15 PM 21.2 °F 1.9 °F 12.2 °F 68% 29.95 in 10.0 mi NW 34.5 mph 40.3 mph N/A   Overcast
7:35 PM 21.2 °F 5.2 °F 12.2 °F 68% 29.96 in 10.0 mi NW 21.9 mph 34.5 mph N/A   Overcast
7:50 PM 21.2 °F 6.0 °F 12.2 °F 68% 29.97 in 10.0 mi NNW 19.6 mph 28.8 mph N/A   Mostly Cloudy
8:15 PM 21.2 °F 4.9 °F 12.2 °F 68% 29.98 in 10.0 mi NNW 23.0 mph 28.8 mph N/A   Mostly Cloudy
8:35 PM 21.2 °F 4.9 °F 12.2 °F 68% 29.98 in 10.0 mi NNW 23.0 mph 32.2 mph N/A   Overcast
8:55 PM 21.2 °F 4.5 °F 12.2 °F 68% 29.99 in 10.0 mi NW 24.2 mph 33.4 mph N/A   Overcast
9:15 PM 21.2 °F 4.2 °F 14.0 °F 74% 29.99 in 10.0 mi NNW 25.3 mph 33.4 mph N/A   Overcast
9:35 PM 19.4 °F 0.8 °F 14.0 °F 80% 29.98 in 10.0 mi NW 28.8 mph 34.5 mph N/A   Overcast
9:55 PM 21.2 °F 2.7 °F 14.0 °F 74% 29.98 in 10.0 mi NW 31.1 mph 39.1 mph N/A   Mostly Cloudy
10:15 PM 21.2 °F 3.9 °F 12.2 °F 68% 29.99 in 10.0 mi NNW 26.5 mph 35.7 mph N/A   Scattered Clouds
10:35 PM 21.2 °F 3.9 °F 12.2 °F 68% 30.00 in 10.0 mi NW 26.5 mph 35.7 mph N/A   Scattered Clouds
10:55 PM 21.2 °F 6.4 °F 12.2 °F 68% 30.02 in 10.0 mi NNW 18.4 mph 31.1 mph N/A   Mostly Cloudy
11:15 PM 21.2 °F 5.6 °F 12.2 °F 68% 30.03 in 10.0 mi NW 20.7 mph 29.9 mph N/A   Mostly Cloudy
11:35 PM 23.0 °F 8.3 °F 12.2 °F 63% 30.04 in 10.0 mi NNW 19.6 mph 27.6 mph N/A   Overcast
11:55 PM 23.0 °F 7.2 °F 12.2 °F 63% 30.03 in 10.0 mi NW 23.0 mph 29.9 mph N/A   Overcast